Regional Weather Roundup
Issued by NWS Sterling, VA

Home | Current Version | Previous Version | Text Only | Print | Product List | Glossary Off
Versions: 1 2 3 4 5 6 7 8 9 10 11 12 13 14 15 16 17 18 19 20 21 22 23 24 25 26 27 28 29 30 31 32 33 34 35 36 37 38 39 40 41 42 43 44 45 46 47 48 49 50

000
ASUS41 KLWX 230811
RWRLWX

REGIONAL WEATHER ROUNDUP
NATIONAL WEATHER SERVICE BALTIMORE MD/WASHINGTON DC
400 AM EDT WED AUG 23 2017

Note: "FAIR" indicates few or no clouds below 12,000 feet
with no significant weather and/or obstructions to visibility.
 TC=TEMPERATURE CELSIUS

 * =Non NWS site. Station does not report precipitation (e.g. rain,
    snow, etc.), thunder, or fog.

DCZ001-MDZ009-015-VAZ040>042-051-053>054-230900-
WASHINGTON METRO

CITY           SKY/WX    TMP DP  RH WIND       PRES   REMARKS
WASHINGTON NAT MOCLDY    79  69  71 W6        29.81S
DULLES         CLOUDY    76  69  79 NW10      29.82S
ANDREWS AFB    MOCLDY    76  67  74 W5        29.81S
FT BELVOIR     CLOUDY    73  69  87 CALM      29.81F
QUANTICO       PTCLDY    78  75  90 NW6       29.81F
COLLEGE PARK*  CLOUDY    77  67  72 SW3       29.81S
LEESBURG*      CLOUDY    73  70  88 W6        29.84S
MANASSAS*      MOCLDY    74  71  91 CALM      29.83R
GAITHERSBURG*  LGT RAIN  72  69  90 W6        29.83F

$$

MDZ006>007-011-014-230900-
BALTIMORE METRO

CITY           SKY/WX    TMP DP  RH WIND       PRES   REMARKS
BWI AIRPORT    MOCLDY    76  70  82 W6        29.80S
MD SCIENCE CTR   N/A     77  71  82 MISG      29.80S
MARTIN STATE   MOCLDY    75  73  94 W3        29.80F
ANNAPOLIS      MOCLDY    80  73  79 W3        29.79S
FORT MEADE*    MOCLDY    72  70  94 W3        29.83F

$$

MDZ012-015-019>023-230900-
MARYLAND EASTERN SHORE

CITY           SKY/WX    TMP DP  RH WIND       PRES   REMARKS
OCEAN CITY     CLEAR     79  76  90 SW13      29.81F
SALISBURY      CLEAR     78  77  96 SW7       29.80F
BAY BRIDGE AP* PTCLDY    79  72  78 NW5       29.80S
CAMBRIDGE*     PTCLDY    79  75  89 CALM      29.80F
EASTON*        CLEAR     80  74  81 W3        29.84F

$$

MDZ017>025-230900-
SOUTHERN MARYLAND

CITY           SKY/WX    TMP DP  RH WIND       PRES   REMARKS
PATUXENT RIVER CLEAR     78  75  90 W5        29.80S
ST INIGOES     CLEAR     80  75  84 W9        29.80S
LEONARDTOWN*   CLEAR     77  72  83 W3        29.83S

$$

MDZ003>005-230900-
NORTH CENTRAL MARYLAND

CITY           SKY/WX    TMP DP  RH WIND       PRES   REMARKS
FREDERICK*     CLOUDY    77  72  83 W6        29.84F
HAGERSTOWN APT CLOUDY    73  69  87 W7        29.83S
WESTMINSTER*   CLOUDY    73  72  94 SW6       29.84R

$$

MDZ501>502-230900-
WESTERN MARYLAND

CITY           SKY/WX    TMP DP  RH WIND       PRES   REMARKS
OAKLAND*       CLOUDY    63  63 100 NW8G22    29.92F
CUMBERLAND*    CLOUDY    70  70 100 S3        29.89F

$$

VAZ025>031-230900-
SHENANDOAH VALLEY

CITY           SKY/WX    TMP DP  RH WIND       PRES   REMARKS
WINCHESTER*    CLOUDY    70  66  88 SW3       29.85S
FRONT ROYAL*   CLOUDY    72  70  94 CALM      29.84F
LURAY*         CLOUDY    72  70  94 CALM      29.85F
NEW MARKET*    CLOUDY    70  69  96 CALM      29.86S
STAUNTON*      CLOUDY    75  64  67 CALM      29.89F
WAYNESBORO*    PTCLDY    74  67  76 S5        29.89F

$$

WVZ021-048>050-054>055-230900-
EASTERN WEST VIRGINIA PANHANDLE

CITY           SKY/WX    TMP DP  RH WIND       PRES   REMARKS
MARTINSBURG    CLOUDY    72  67  84 W12       29.82F
PETERSBURG*    CLOUDY    72  69  90 CALM      29.87F

$$

VAZ036>039-050-230900-
CENTRAL FOOTHILLS

CITY           SKY/WX    TMP DP  RH WIND       PRES   REMARKS
CHARLOTTESVILL MOCLDY    79  67  66 CALM      29.83F
CULPEPER*      MOCLDY    73  71  94 CALM      29.83F
ORANGE*        CLOUDY    72  68  88 CALM      29.82F
GORDONSVILLE*  CLOUDY    73  71  91 CALM      29.82F
WARRENTON*     MOCLDY    73  67  83 CALM      29.82S

$$

VAZ055>057-230900-
NORTH AND CENTRAL PIEDMONT

CITY           SKY/WX    TMP DP  RH WIND       PRES   REMARKS
FREDERICKSBRG* CLOUDY    76  74  93 CALM      29.81S
STAFFORD*      CLOUDY    72  72 100 CALM      29.86S

$$

NCZ024-NYZ072-PAZ021-071-VAZ022-071-230900-
OTHER REGIONAL OBSERVATIONS

CITY           SKY/WX    TMP DP  RH WIND       PRES   REMARKS
NEW YORK CITY  CLOUDY    73  72  96 VRB3      29.78F
PHILADELPHIA   CLOUDY    76  72  87 W6        29.78F
PITTSBURGH     CLOUDY    66  64  93 NW6       29.91S
ROANOKE        PTCLDY    74  66  76 W6        29.91F
RICHMOND       PTCLDY    77  73  87 SW10      29.83F
RALEIGH        PTCLDY    77  73  87 SW8       29.90F

$$

ANZ530>537-230900-
MARINE OBSERVATIONS

STATION/POSITION TIME  TEMP    WIND        PRES
                       AIR SEA DIR/SP/G
                 (UTC) (F)     (DEG/KT/KT) (MB)
THOMAS PT LIGHT  0800   80 81  280/  6/  7   N/A
BALT KEY BRIDGE  0742   78     260/  5/  5 1008.7F
COVE POINT       0742   80     300/  4/  8 1009.8F
LEWISETTA        0742   80 82  250/  9/ 13 1009.0F
SOLOMONS ISLAND  0742   80 82  260/  3/  4   N/A
PINEY POINT      0742          250/  7/  9   N/A

$$




USA.gov is the U.S. government's official web portal to all federal, state and local government web resources and services.